• In Russia
  • List of Countries
  • For 7 days
  • Water Temperature
  • Satellite Maps
  • Weather Map
  • Weather Widgets
  • user-avatar
    Login

    Hourly Weather Haragis

    Today, 20 June, Wednesday

    Time Temperature Precipitation Wind Pressure Humidity
    00:00 +22°C° 0 mm 3 mps 748 mmHg 64%
    01:00 +22°C° 0 mm 3 mps 748 mmHg 66%
    02:00 +21°C° 0 mm 3 mps 748 mmHg 69%
    03:00 +21°C° 0 mm 3 mps 748 mmHg 71%
    04:00 +21°C° 0 mm 3 mps 748 mmHg 74%
    05:00 +20°C° 0 mm 3 mps 749 mmHg 76%
    06:00 +22°C° 0 mm 3 mps 749 mmHg 71%
    07:00 +25°C° 0 mm 4 mps 749 mmHg 66%
    08:00 +27°C° 0 mm 4 mps 749 mmHg 61%
    09:00 +28°C° 0 mm 4 mps 749 mmHg 56%
    10:00 +30°C° 0 mm 4 mps 750 mmHg 51%
    11:00 +32°C° 0 mm 4 mps 750 mmHg 47%
    12:00 +32°C° 0 mm 4 mps 749 mmHg 46%
    13:00 +33°C° 0 mm 4 mps 749 mmHg 45%
    14:00 +33°C° 0 mm 4 mps 749 mmHg 43%
    15:00 +33°C° 0 mm 3 mps 749 mmHg 44%
    16:00 +33°C° 0 mm 3 mps 749 mmHg 45%
    17:00 +31°C° 0 mm 3 mps 749 mmHg 46%
    18:00 +30°C° 0 mm 3 mps 749 mmHg 51%
    19:00 +29°C° 0 mm 2 mps 749 mmHg 55%
    20:00 +28°C° 0 mm 2 mps 749 mmHg 59%
    21:00 +27°C° 0 mm 2 mps 749 mmHg 63%
    22:00 +26°C° 0 mm 2 mps 749 mmHg 67%
    23:00 +25°C° 0 mm 2 mps 749 mmHg 70%

    Tomorrow, 21 June, Thursday

    Time Temperature Precipitation Wind Pressure Humidity
    00:00 +24°C° 0.1 mm 2 mps 749 mmHg 73%
    01:00 +23°C° 0.1 mm 2 mps 749 mmHg 76%
    02:00 +23°C° 0.1 mm 2 mps 749 mmHg 80%
    03:00 +23°C° 0.1 mm 2 mps 749 mmHg 81%
    04:00 +21°C° 0.1 mm 2 mps 749 mmHg 82%
    05:00 +21°C° 0.1 mm 2 mps 749 mmHg 83%
    06:00 +24°C° 0 mm 2 mps 749 mmHg 77%
    07:00 +25°C° 0 mm 2 mps 749 mmHg 71%
    08:00 +27°C° 0 mm 2 mps 749 mmHg 64%
    09:00 +28°C° 0 mm 2 mps 748 mmHg 59%
    10:00 +29°C° 0 mm 2 mps 748 mmHg 54%
    11:00 +30°C° 0 mm 2 mps 748 mmHg 49%
    12:00 +31°C° 0 mm 2 mps 747 mmHg 49%
    13:00 +31°C° 0 mm 2 mps 747 mmHg 48%
    14:00 +31°C° 0 mm 2 mps 746 mmHg 48%
    15:00 +31°C° 0 mm 2 mps 746 mmHg 48%
    16:00 +31°C° 0 mm 2 mps 745 mmHg 48%
    17:00 +31°C° 0 mm 3 mps 745 mmHg 48%
    18:00 +29°C° 0 mm 3 mps 745 mmHg 52%
    19:00 +28°C° 0 mm 2 mps 745 mmHg 56%
    20:00 +27°C° 0 mm 2 mps 745 mmHg 61%
    21:00 +26°C° 0.2 mm 2 mps 744 mmHg 64%
    22:00 +25°C° 0.2 mm 2 mps 744 mmHg 67%
    23:00 +24°C° 0.2 mm 3 mps 744 mmHg 70%

    Day after tomorrow, 22 June, Friday

    Time Temperature Precipitation Wind Pressure Humidity
    00:00 +23°C° 0.1 mm 2 mps 744 mmHg 73%
    01:00 +23°C° 0.1 mm 2 mps 743 mmHg 75%
    02:00 +21°C° 0.1 mm 2 mps 743 mmHg 78%
    03:00 +22°C° 0.1 mm 1 mps 743 mmHg 80%
    04:00 +22°C° 0.1 mm 1 mps 742 mmHg 81%
    05:00 +22°C° 0.1 mm 1 mps 742 mmHg 82%
    06:00 +24°C° 0 mm 2 mps 742 mmHg 76%
    07:00 +25°C° 0 mm 2 mps 742 mmHg 69%
    08:00 +27°C° 0 mm 3 mps 742 mmHg 62%
    09:00 +28°C° 0.1 mm 3 mps 742 mmHg 57%
    10:00 +30°C° 0.1 mm 3 mps 741 mmHg 51%
    11:00 +31°C° 0.1 mm 3 mps 741 mmHg 46%
    12:00 +32°C° 0.3 mm 4 mps 741 mmHg 47%
    13:00 +32°C° 0.3 mm 4 mps 741 mmHg 48%
    14:00 +32°C° 0.3 mm 4 mps 741 mmHg 49%
    15:00 +29°C° 1.4 mm 5 mps 741 mmHg 58%
    16:00 +27°C° 1.4 mm 6 mps 741 mmHg 67%
    17:00 +24°C° 1.4 mm 7 mps 741 mmHg 76%
    18:00 +22°C° 2 mm 7 mps 741 mmHg 79%
    19:00 +21°C° 2 mm 7 mps 741 mmHg 83%
    20:00 +20°C° 2 mm 7 mps 742 mmHg 86%
    21:00 +18°C° 0.1 mm 8 mps 742 mmHg 85%
    22:00 +17°C° 0.1 mm 8 mps 742 mmHg 84%
    23:00 +16°C° 0.1 mm 8 mps 742 mmHg 83%

    23 June, Saturday

    Time Temperature Precipitation Wind Pressure Humidity
    00:00 +15°C° 0 mm 8 mps 743 mmHg 80%
    01:00 +15°C° 0 mm 8 mps 743 mmHg 78%
    02:00 +13°C° 0 mm 8 mps 743 mmHg 76%
    03:00 +13°C° 0 mm 8 mps 743 mmHg 75%
    04:00 +13°C° 0 mm 8 mps 743 mmHg 74%
    05:00 +13°C° 0 mm 8 mps 744 mmHg 73%
    06:00 +13°C° 0 mm 8 mps 744 mmHg 72%
    07:00 +15°C° 0 mm 8 mps 745 mmHg 71%
    08:00 +15°C° 0 mm 8 mps 745 mmHg 70%
    09:00 +15°C° 0.2 mm 7 mps 745 mmHg 70%
    10:00 +15°C° 0.2 mm 7 mps 746 mmHg 70%
    11:00 +15°C° 0.2 mm 6 mps 746 mmHg 71%
    12:00 +17°C° 0 mm 6 mps 746 mmHg 63%
    13:00 +20°C° 0 mm 6 mps 746 mmHg 56%
    14:00 +21°C° 0 mm 5 mps 746 mmHg 49%
    15:00 +21°C° 0 mm 5 mps 746 mmHg 48%
    16:00 +22°C° 0 mm 5 mps 746 mmHg 47%
    17:00 +22°C° 0 mm 5 mps 746 mmHg 46%
    18:00 +21°C° 0 mm 4 mps 746 mmHg 50%
    19:00 +19°C° 0 mm 3 mps 746 mmHg 55%
    20:00 +18°C° 0 mm 2 mps 746 mmHg 60%
    21:00 +17°C° 0 mm 2 mps 747 mmHg 62%
    22:00 +16°C° 0 mm 1 mps 747 mmHg 64%
    23:00 +16°C° 0 mm 1 mps 748 mmHg 65%

    24 June, Sunday

    Time Temperature Precipitation Wind Pressure Humidity
    00:00 +15°C° 0 mm 1 mps 748 mmHg 66%
    01:00 +15°C° 0 mm 1 mps 748 mmHg 66%
    02:00 +15°C° 0 mm 1 mps 748 mmHg 67%
    03:00 +15°C° 0 mm 1 mps 748 mmHg 68%
    04:00 +15°C° 0 mm 1 mps 748 mmHg 69%
    05:00 +13°C° 0 mm 0 mps 748 mmHg 70%
    06:00 +16°C° 0 mm 1 mps 748 mmHg 65%
    07:00 +18°C° 0 mm 1 mps 749 mmHg 60%
    08:00 +20°C° 0 mm 1 mps 749 mmHg 55%
    09:00 +21°C° 0 mm 1 mps 749 mmHg 55%
    10:00 +20°C° 0 mm 2 mps 749 mmHg 54%
    11:00 +21°C° 0 mm 2 mps 749 mmHg 54%
    12:00 +21°C° 0 mm 2 mps 749 mmHg 52%
    13:00 +22°C° 0 mm 3 mps 749 mmHg 50%
    14:00 +24°C° 0 mm 3 mps 748 mmHg 48%
    15:00 +24°C° 0.1 mm 3 mps 748 mmHg 47%
    16:00 +24°C° 0.1 mm 3 mps 748 mmHg 46%
    17:00 +25°C° 0.1 mm 3 mps 748 mmHg 46%
    18:00 +24°C° 0.2 mm 3 mps 748 mmHg 50%
    19:00 +21°C° 0.2 mm 2 mps 748 mmHg 55%
    20:00 +20°C° 0.2 mm 2 mps 749 mmHg 60%
    21:00 +19°C° 0.2 mm 2 mps 749 mmHg 62%
    22:00 +19°C° 0.2 mm 2 mps 749 mmHg 64%
    23:00 +18°C° 0.2 mm 2 mps 749 mmHg 67%

    25 June, Monday

    Time Temperature Precipitation Wind Pressure Humidity
    00:00 +17°C° 0.1 mm 2 mps 749 mmHg 68%
    01:00 +17°C° 0.1 mm 2 mps 749 mmHg 69%
    02:00 +16°C° 0.1 mm 1 mps 749 mmHg 70%
    03:00 +16°C° 0 mm 1 mps 749 mmHg 70%
    04:00 +16°C° 0 mm 1 mps 749 mmHg 70%
    05:00 +16°C° 0 mm 1 mps 749 mmHg 71%
    06:00 +19°C° 0 mm 1 mps 749 mmHg 65%
    07:00 +20°C° 0 mm 1 mps 749 mmHg 59%
    08:00 +22°C° 0 mm 1 mps 749 mmHg 53%
    09:00 +23°C° 0 mm 2 mps 749 mmHg 48%
    10:00 +25°C° 0 mm 2 mps 749 mmHg 44%
    11:00 +26°C° 0 mm 3 mps 749 mmHg 39%
    12:00 +27°C° 0 mm 3 mps 749 mmHg 37%
    13:00 +27°C° 0 mm 3 mps 748 mmHg 34%
    14:00 +28°C° 0 mm 3 mps 748 mmHg 32%
    15:00 +28°C° 0 mm 2 mps 748 mmHg 33%
    16:00 +27°C° 0 mm 2 mps 748 mmHg 34%
    17:00 +27°C° 0 mm 2 mps 748 mmHg 36%
    18:00 +26°C° 0 mm 2 mps 748 mmHg 41%
    19:00 +24°C° 0 mm 2 mps 748 mmHg 46%
    20:00 +21°C° 0 mm 2 mps 748 mmHg 51%
    21:00 +21°C° 0 mm 2 mps 748 mmHg 53%
    22:00 +20°C° 0 mm 2 mps 748 mmHg 55%
    23:00 +19°C° 0 mm 2 mps 748 mmHg 57%
    Show more